sat.trackr.live / text

‹ back to catalog

ALSAT-2B

NORAD 41786 · 2016-059D

PAYLOAD ACTIVE UNKNOWN

§ Identity

Operator
Country
ALG
Launch date
2016-09-26
Launch site
SRILR
Launch vehicle
Mass (kg)
RCS (m²)
0.78

External: N2YO · Heavens-Above · Gunter

§ Orbital elements

Epoch: 2026-05-25T03:34:44.280768Z

Period
97.90 min
Inclination
97.9903°
Eccentricity
0.0000789
Mean motion
14.70836748 rev/d
Perigee alt
657.8 km
Apogee alt
659.0 km
Semi-major
7,036.5 km
B*
1.0732e-4
RAAN
207.8630°
Arg perigee
72.5580°
Mean anomaly
287.5713°
Rev number
51,738

§ Raw data

ALSAT-2B1 41786U 16059D   26145.14912362  .00000607  00000+0  10732-3 0  99912 41786  97.9903 207.8630 0000789  72.5580 287.5713 14.70836748517387

JSON: /api/v1/satellites/41786 · /tle

For live sub-satellite position, see the globe view (requires WebGL).

§ Visibility from observer

Set your observer location to see the next 7 days of passes ≥ 10°. The values pass through the URL so the page stays shareable.

No JS? Fill the form by hand. The geolocation button needs JavaScript.

§ Radio — SatNOGS DB

ModeDescriptionDownlinkUplink
FM S-band telemetry 2.267 GHz

1 transmitter · refreshed weekly from db.satnogs.org